Hourly Data Report for September 01, 2017

All times are specified in Local Standard Time (LST). Add 1 hour to adjust for Daylight Saving Time where and when it is observed.

POND INLET A
NUNAVUT

72°41'22.000" N
77°58'08.000" W
61.60 m
2403206
71095
YIO

Download Data

Hourly Data (September 2017)
Hourly Data Report for September 1, 2017
Temp Definition
°C
Dew Point Temp Definition
°C
Rel Hum Definition
%
Wind Dir Definition
10's deg

Wind Spd Definition
km/h
Visibility Definition
km
Stn Press Definition
kPa
Hmdx Definition


Wind Chill Definition


Weather Definition


TIME
00:00 Legend Double Dagger 2.3 1.0 91 14 5 16.1 98.85     LegendNANA
01:00 Legend Double Dagger 2.1 0.8 91   0 16.1 98.88     LegendNANA
02:00 Legend Double Dagger 2.2 0.7 90   0 16.1 98.90     LegendNANA
03:00 Legend Double Dagger 2.1 0.8 91   0 16.1 98.92     LegendNANA
04:00 Legend Double Dagger 2.0 0.8 92 7 4 16.1 98.94     LegendNANA
05:00 Legend Double Dagger 1.9 0.7 92 7 4 16.1 98.97     LegendNANA
06:00 Legend Double Dagger 2.2 1.0 92   0 16.1 99.02     LegendNANA
07:00 Legend Double Dagger 3.1 1.8 91 36 4 16.1 99.07     LegendNANA
08:00 Legend Double Dagger 3.4 2.1 91   0 16.1 99.10     LegendNANA
09:00 Legend Double Dagger 4.6 2.8 88   0 16.1 99.14     LegendNANA
10:00 Legend Double Dagger 5.9 4.1 88 28 8 16.1 99.19     LegendNANA
11:00 Legend Double Dagger 6.3 3.5 82 32 9 16.1 99.24     LegendNANA
12:00 Legend Double Dagger 5.6 2.0 77 2 5 16.1 99.29     LegendNANA
13:00 Legend Double Dagger 5.8 1.7 75 2 8 16.1 99.34     LegendNANA
14:00 Legend Double Dagger 6.7 2.3 74 2 5 16.1 99.38     LegendNANA
15:00 Legend Double Dagger 5.7 1.6 75 3 8 16.1 99.43     LegendNANA
16:00 Legend Double Dagger 6.6 2.5 75 31 5 16.1 99.51     LegendNANA
17:00 Legend Double Dagger 5.6 1.5 75 LegendMM 4 16.1 99.57     LegendNANA
18:00 Legend Double Dagger 4.8 0.9 76 16 13 16.1 99.61     LegendNANA
19:00 Legend Double Dagger 5.2 0.6 72 18 9 16.1 99.66     LegendNANA
20:00 Legend Double Dagger 2.3 -0.5 82 18 17 16.1 99.71     LegendNANA
21:00 Legend Double Dagger 0.4 -1.5 87 18 26 16.1 99.76     LegendNANA
22:00 Legend Double Dagger 0.1 -1.7 88 18 24 16.1 99.80     LegendNANA
23:00 Legend Double Dagger -0.1 -1.9 88 16 18 16.1 99.83   -5 LegendNANA

Notes on Data Quality.

Legend

  • E = Estimated
  • M = Missing
  • NA = Not Available
  • ‡ = Partner data that is not subject to review by the National Climate Archives
Date modified: